SAUDISAT 3 (31118 NORAD) Tracking and Keplerian Element Data

This shows tracking and keplerian element data for the satellite.

Feedback or suggestion? Click here.




ElementValue
Catalog31118
NameSAUDISAT 3
Epoch Orbit60310
Epoch Day198.86644819
Epoch Year2018
RAAN177.062
Inclination97.767
Eccentricity0.0016314
Argument of Perigee82.237
Mean Anonmoly278.0703
Mean Motion14.69103659
Decay Rate-2.8E-07
L11 31118U 07012B 18198.86644819 -.00000028 00000-0 31135-5 0 9996
L22 31118 97.7670 177.0620 0016314 82.2370 278.0703 14.69103659603103

Live tracking and technical data element details for SAUDISAT 3 (NORAD 31118). SAUDISAT 3 can be tracked NOW for your location showing map with azimuth and elevation plus other details from your city location.

Track the satellite on the map from your city or location and see movement details for azimuth, elevation, latitude, longitude, range, height, and movement on the map or in text.







IsCatalogInMostPopularTable: catalog: 31118, numindb: 31
Update: records affected: 1



GetName: 31118 SAUDISAT 3

Hit Count: updated at: Thu, 19 Jul 2018 21:25:48 GMT